Showing default

CHUBUSAT 3, 41339

Orbit data source: Space-Track

CHUBUSAT 3, 41339 is a Japanese payload satellite in LEO that was launched on Wed, 17 Feb 2016 UTC via an H-IIA 202 launch vehicle from the Tanegashima Space Center (TNSTA). Payload-class satellites include a variety of spacecraft equipped with specific instruments for various scientific and technological missions. These include communications satellites like Starlink; space stations such as the ISS; scientific satellites like the Hubble; Earth observation satellites from companies like Planet Labs, Umbra, and HawkEye 360; GPS; miniature CubeSats for education and research; and military/defense satellites.

Loading next visibility...
Identifier
41339, 2016-012C
Orbit
LEO
Country
Flag of JPJP / JPN
Related business
Manufacturer
NAG/MHIME
Mission
Non-operational Amateur Imaging
Bus & Motor
Unknown
Mass
52 kg wet, 52 kg dry
Launch date (UTC)
2016-02-17 (10 years ago)
Launch vehicle
H-IIA 202
Launch site
Tanegashima Space Center (TNSTA)
Object type
Payload
Rocket body
Debris
Shape & HBR
Box, 0.3 m
Radar Cross Section
0.480 m², Medium (>0.1 m² and < 1m²)

Expand to show TLE details & history
Last TLE update: 11 hours ago

TLE from 11 hours ago
0 CHUBUSAT 3
1 41339U 16012C   25307.83982659  .00006021  00000-0  30115-3 0  9999
2 41339  31.0067   1.7426 0009485 291.6868  68.2762 15.15876243533942
Epoch: 2025-11-03T20:09Z
TLE epoch observation values (Epoch: 2025-11-03T20:09:21.017Z)
Latitude
Longitude
16.0696°
Altitude
514.411 km
Speed
7.61 km/s
True Right ascension
00h 06m 58s
True Declination
0° 00' 00"
Sunlit
Object was in full shadow at epoch
Visualization orbit readout
Latitude
Unknown
Longitude
Unknown
Altitude
Unknown
Speed
Unknown
Apparent Right ascension
Unknown
Apparent Declination
Unknown
Sunlit
N/A
Visualization observer readout
Local Sidereal Time
02:40:01
Azimuth
Unknown
Elevation
Unknown
Doppler factor
Unknown
Orbital elements
Apogee altitude
528.715 km
Perigee altitude
515.625 km
Semi-major axis
6,900.307 km
Eccentricity
0.00095
Inclination
31.0067°
RAAN
1.7426°
Arg. of periapsis
291.6868°
True anomaly
68.37722°
Mean anomaly
68.2762°
Eccentric anomaly
68.3267°
Mean motion
3.78652 °/min
Orbital period
95.07 mins
BSTAR
0.00030115
Loading maneuver chart data...
Computing Atmospheric mass density...
Loading historical data...
Loading historical data...
Loading historical data...
Loading historical data...
Loading historical data...
Loading historical data...
Loading historical data...

Documentation

Showing up to 5 results
|